Weather in Bereznik

Russia / Arkhangel'skaya Oblast'     62°51′04″N   42°43′21″E
temp.,
°C
wind,
m/s
gust,
m/s
humid.,
%
clouds,
%
prec.,
mm/h
press.,
hPa
HPBL,
m
24 may, tue
tue2400:00−1nnw499795 0.9 1003598
03:00−2n3895100 1.0 1004499
06:000n3794100 0.3 1005496
09:00+3nne3579100 0.5 1006889
12:00+5nne4670100 0.2 10081085
15:00+8ne3659100 0.5 10091397
18:00+8nne366876 0.4 10101040
21:00+3nnw38895 0.4 1012185
25 may, wed
wed2500:00+1nnw3119431 0.0 1012267
03:000nnw3109676 0.0 1012266
06:00+4nnw4108384 0.0 1012478
09:00+4nne4894100 0.3 1012716
12:00+7n457654 0.1 1012824
15:00+9n466893 0.3 10111280
18:00+9nw267599 0.4 1009774
21:00+6s2397100 1.9 1009105
26 may, thu
thu2600:00+5ene1298100 4.1 100785
03:00+5n1196100 6.1 100737
06:00+6n019551 0.1 1006191
09:00+10nw127099 0.2 1004949
12:00+10nw3474100 0.1 1003793
15:00+8wnw3691100 0.4 1002382
18:00+7wsw3893100 0.4 1000462
21:00+7sw41093100 1.6 999527
27 may, fri
fri2700:00+6ssw4996100 2.6 999404
03:00+6s3995100 3.3 998407
06:00+7s4993100 0.0 999399
09:00+10s4870100 0.0 998687
12:00+15sse4745100 0.0 9982292
15:00+15sse5750100 0.1 9981890
18:00+11s497497 0.1 999809
21:00+9ese3894100 0.5 1000343
28 may, sat
sat2800:00+9e41097100 1.0 999418
03:00+9ese3998100 4.7 998489
06:00+9se41097100 4.5 997622
09:00+10se4894100 5.4 997607
12:00+13sse4677100 0.7 997953
15:00+13ese4880100 2.1 996969
18:00+10e3996100 3.2 995479
21:00+10ene3896100 6.5 993444